Date String (YYYY-MM-DD hh:mm:ss) UTC,Instrument flags,Ambient pressure (hPa),Sample flow (lpm),Bypass flow (lpm),Sample temperature (°C),Ambient temperature (°C),ASC tube jacket temperature (°C),LED temperature (°C),Box temperature (°C),Sample RH (%),Span deviation,Mass concentration (μg/m³),Mass concentration (μg/m³),Mass concentration (μg/m³)
DateTimeUTC,F1_M11,P_M11,Q1_M11,Q2_M11,T1_M11,T2_M11,T3_M11,T4_M11,T5_M11,U1_M11,ZSPAN_M11,X0_M11,X2_M11,X1_M11
2021-11-07 04:00:00,,0824.4,5.00,0.00,30.2,29.3,00.0,39.2,31.9,07.0,0000.0,0004.02,0001.70,0001.20
2021-11-07 04:01:00,,0824.5,5.01,0.00,30.2,29.3,00.0,39.2,31.9,06.9,0000.0,0004.41,0001.69,0001.19
2021-11-07 04:02:00,,0824.6,5.00,0.00,30.3,29.3,00.0,39.2,32.0,06.9,0000.0,0004.00,0001.64,0001.20
2021-11-07 04:03:00,,0824.9,5.00,0.00,30.3,29.3,00.0,39.3,32.0,06.9,0000.0,0003.89,0001.60,0001.19
2021-11-07 04:04:00,,0824.6,5.00,0.00,30.3,29.3,00.0,39.3,32.0,06.9,0000.0,0003.98,0001.64,0001.18
2021-11-07 04:05:00,,0824.5,5.01,0.00,30.3,29.4,00.0,39.3,32.0,06.9,0000.0,0003.98,0001.64,0001.17
2021-11-07 04:06:00,,0824.7,5.00,0.00,30.3,29.4,00.0,39.3,32.0,06.9,0000.0,0003.92,0001.60,0001.16
2021-11-07 04:07:00,,0824.5,4.99,0.00,30.3,29.4,00.0,39.3,32.0,06.9,0000.0,0003.92,0001.60,0001.16
2021-11-07 04:08:00,,0824.6,5.01,0.00,30.3,29.4,00.0,39.3,32.0,06.9,0000.0,0003.82,0001.58,0001.15
2021-11-07 04:09:00,,0824.8,5.00,0.00,30.3,29.4,00.0,39.3,32.0,06.9,0000.0,0003.73,0001.57,0001.15
2021-11-07 04:10:00,,0824.8,5.00,0.00,30.3,29.4,00.0,39.3,32.0,06.9,0000.0,0003.49,0001.55,0001.15
2021-11-07 04:11:00,,0824.9,5.01,0.00,30.3,29.4,00.0,39.3,32.0,07.0,0000.0,0002.95,0001.50,0001.13
2021-11-07 04:12:00,,0824.5,4.99,0.00,30.3,29.4,00.0,39.3,32.0,06.9,0000.0,0002.59,0001.50,0001.13
2021-11-07 04:13:00,,0824.6,5.00,0.00,30.3,29.4,00.0,39.3,32.0,07.0,0000.0,0002.46,0001.51,0001.13
2021-11-07 04:14:00,,0824.4,5.01,0.00,30.3,29.4,00.0,39.3,32.0,07.0,0000.0,0002.51,0001.53,0001.13
2021-11-07 04:15:00,,0824.7,4.99,0.00,30.3,29.4,00.0,39.3,32.0,07.1,0000.0,0002.82,0001.52,0001.13
2021-11-07 04:16:00,,0824.6,5.00,0.00,30.3,29.4,00.0,39.3,32.0,07.1,0000.0,0002.74,0001.49,0001.13
2021-11-07 04:17:00,,0824.6,5.02,0.00,30.3,29.4,00.0,39.3,32.0,07.1,0000.0,0002.80,0001.51,0001.13
2021-11-07 04:18:00,,0824.7,5.00,0.00,30.3,29.4,00.0,39.3,32.0,07.1,0000.0,0002.83,0001.51,0001.12
2021-11-07 04:19:00,,0824.5,5.00,0.00,30.3,29.4,00.0,39.3,32.0,07.1,0000.0,0002.88,0001.52,0001.12
2021-11-07 04:20:00,,0824.4,5.00,0.00,30.3,29.4,00.0,39.3,32.0,07.1,0000.0,0002.90,0001.53,0001.12
2021-11-07 04:21:00,,0824.4,5.00,0.00,30.3,29.4,00.0,39.3,32.0,07.1,0000.0,0003.01,0001.51,0001.11
2021-11-07 04:22:00,,0824.4,5.00,0.00,30.3,29.4,00.0,39.3,32.0,07.1,0000.0,0002.83,0001.48,0001.12
2021-11-07 04:23:00,,0824.4,4.99,0.00,30.3,29.4,00.0,39.3,32.0,07.1,0000.0,0002.74,0001.45,0001.13
2021-11-07 04:24:00,,0824.4,5.00,0.00,30.3,29.4,00.0,39.3,32.0,07.1,0000.0,0002.83,0001.47,0001.13
2021-11-07 04:25:00,,0824.5,5.00,0.00,30.3,29.4,00.0,39.3,32.0,07.1,0000.0,0003.05,0001.53,0001.14
2021-11-07 04:26:00,,0824.4,5.01,0.00,30.3,29.4,00.0,39.3,32.0,07.0,0000.0,0002.81,0001.54,0001.14
2021-11-07 04:27:00,,0824.5,4.99,0.00,30.3,29.4,00.0,39.3,32.0,07.0,0000.0,0002.93,0001.59,0001.15
2021-11-07 04:28:00,,0824.5,5.01,0.00,30.3,29.4,00.0,39.3,32.0,07.0,0000.0,0003.21,0001.59,0001.15
2021-11-07 04:29:00,,0824.5,5.00,0.00,30.3,29.4,00.0,39.3,32.0,06.9,0000.0,0003.43,0001.59,0001.15
2021-11-07 04:30:00,,0824.4,5.00,0.00,30.3,29.4,00.0,39.3,32.0,06.9,0000.0,0003.99,0001.62,0001.15
2021-11-07 04:31:00,,0824.7,5.01,0.00,30.3,29.4,00.0,39.3,32.0,06.7,0000.0,0003.98,0001.59,0001.15
2021-11-07 04:32:00,,0824.4,4.99,0.00,30.3,29.3,00.0,39.3,32.0,06.7,0000.0,0003.86,0001.59,0001.16
2021-11-07 04:33:00,,0824.4,5.00,0.00,30.2,29.3,00.0,39.3,32.0,06.7,0000.0,0003.85,0001.60,0001.16
2021-11-07 04:34:00,,0824.4,5.00,0.00,30.2,29.3,00.0,39.3,31.9,06.7,0000.0,0004.84,0001.58,0001.14
2021-11-07 04:35:00,,0824.3,5.00,0.00,30.2,29.3,00.0,39.3,31.9,06.5,0000.0,0005.02,0001.54,0001.13
2021-11-07 04:36:00,,0824.4,5.00,0.00,30.2,29.3,00.0,39.3,31.9,06.5,0000.0,0004.87,0001.49,0001.13
2021-11-07 04:37:00,,0824.4,5.00,0.00,30.2,29.3,00.0,39.3,31.9,06.4,0000.0,0004.91,0001.51,0001.14
2021-11-07 04:38:00,,0824.4,5.00,0.00,30.2,29.3,00.0,39.3,31.9,06.4,0000.0,0004.88,0001.50,0001.13
2021-11-07 04:39:00,,0824.4,5.01,0.00,30.2,29.3,00.0,39.3,31.8,06.4,0000.0,0004.75,0001.54,0001.14
2021-11-07 04:40:00,,0824.5,4.99,0.00,30.2,29.3,00.0,39.3,31.8,06.5,0000.0,0004.65,0001.54,0001.15
2021-11-07 04:41:00,,0824.5,5.01,0.00,30.2,29.2,00.0,39.3,31.9,06.5,0000.0,0004.90,0001.55,0001.16
2021-11-07 04:42:00,,0824.4,5.00,0.00,30.1,29.2,00.0,39.3,31.9,06.5,0000.0,0005.09,0001.61,0001.16
2021-11-07 04:43:00,,0824.4,5.00,0.00,30.1,29.2,00.0,39.2,31.8,06.5,0000.0,0005.22,0001.68,0001.16
2021-11-07 04:44:00,,0824.4,5.00,0.00,30.1,29.2,00.0,39.2,31.8,06.6,0000.0,0005.20,0001.66,0001.15
2021-11-07 04:45:00,,0824.4,4.99,0.00,30.1,29.2,00.0,39.2,31.8,06.6,0000.0,0004.00,0001.64,0001.14
2021-11-07 04:46:00,,0824.5,5.01,0.00,30.1,29.3,00.0,39.2,31.8,06.5,0000.0,0003.74,0001.66,0001.14
2021-11-07 04:47:00,,0824.4,4.99,0.00,30.1,29.3,00.0,39.2,31.9,06.5,0000.0,0003.69,0001.65,0001.13
2021-11-07 04:48:00,,0824.4,4.99,0.00,30.2,29.3,00.0,39.2,31.8,06.4,0000.0,0003.57,0001.61,0001.13
2021-11-07 04:49:00,,0824.4,5.00,0.00,30.2,29.3,00.0,39.2,31.8,06.5,0000.0,0003.51,0001.60,0001.13
2021-11-07 04:50:00,,0824.4,4.99,0.00,30.2,29.3,00.0,39.2,31.8,06.8,0000.0,0003.36,0001.55,0001.12
2021-11-07 04:51:00,,0824.4,5.01,0.00,30.2,29.3,00.0,39.2,31.9,06.8,0000.0,0003.39,0001.57,0001.12
2021-11-07 04:52:00,,0824.5,4.98,0.00,30.2,29.3,00.0,39.2,31.9,06.7,0000.0,0002.92,0001.57,0001.13
2021-11-07 04:53:00,,0824.4,5.00,0.00,30.2,29.3,00.0,39.2,31.9,06.6,0000.0,0002.80,0001.58,0001.13
2021-11-07 04:54:00,,0824.4,4.99,0.00,30.2,29.3,00.0,39.2,31.9,06.6,0000.0,0002.69,0001.53,0001.13
2021-11-07 04:55:00,,0824.4,5.01,0.00,30.2,29.3,00.0,39.2,31.9,06.6,0000.0,0002.69,0001.54,0001.14
2021-11-07 04:56:00,,0824.4,5.00,0.00,30.2,29.3,00.0,39.2,31.9,06.6,0000.0,0002.77,0001.57,0001.15
2021-11-07 04:57:00,,0824.5,5.00,0.00,30.2,29.3,00.0,39.2,31.9,06.7,0000.0,0003.04,0001.66,0001.17
2021-11-07 04:58:00,,0824.5,5.00,0.00,30.2,29.3,00.0,39.2,31.9,06.7,0000.0,0003.15,0001.71,0001.18
2021-11-07 04:59:00,,0824.5,5.00,0.00,30.2,29.3,00.0,39.2,31.9,06.6,0000.0,0003.27,0001.75,0001.19
